Tacoma Narrows, WA
on Monday, February 11, 2013

Monday
Previous Day Next Day
Daily Summary
 ActualAverageRecord
Temperature
Mean Temperature °F °F  
Max Temperature 45°F 46°F 57°F (2004)
Min Temperature 39°F 36°F 32°F (2002)
Degree Days
Heating Degree Days 23    
Moisture
Dew Point 38°F   
Average Humidity 84    
Maximum Humidity 93    
Minimum Humidity 73    
Precipitation
Precipitation 0.01 in in in ()
Wind
Wind Speed 2 mph   
Max Wind Speed 8 mph   
Max Gust Speed mph   
Visibility 8 miles   
Events     
Averages and records for this station are not official NWS values.
Key: T is trace of precipitation, MM is missing value
Source: NWS Daily Summary
Seasonal Weather Averages
Time(PST)TemperatureDew PointHumidity Pressure Visibility Wind DirectionWind SpeedGust SpeedPrecipitationEvents Conditions
12:53 AM 42.1°F 36.0°F 79% 30.36 in 10.0 miles Calm Calm - N/A   Overcast
1:53 AM 42.1°F 36.0°F 79% 30.36 in 10.0 miles Calm Calm - N/A   Overcast
2:53 AM 42.1°F 36.0°F 79% 30.35 in 10.0 miles Calm Calm - N/A   Overcast
3:09 AM 42.8°F 35.6°F 76% 30.34 in 10.0 miles Calm Calm - N/A   Overcast
3:53 AM 41.0°F 36.0°F 82% 30.35 in 10.0 miles Calm Calm - N/A   Overcast
4:53 AM 41.0°F 36.0°F 82% 30.35 in 10.0 miles Calm Calm - N/A   Overcast
5:44 AM 39.2°F 35.6°F 87% 30.34 in 10.0 miles Calm Calm - N/A   Overcast
5:53 AM 41.0°F 36.0°F 82% 30.35 in 10.0 miles Calm Calm - N/A   Overcast
6:35 AM 39.2°F 35.6°F 87% 30.34 in 10.0 miles Calm Calm - N/A   Mostly Cloudy
6:53 AM 39.9°F 35.1°F 83% 30.35 in 10.0 miles Calm Calm - N/A   Overcast
7:53 AM 39.9°F 37.0°F 89% 30.35 in 10.0 miles SW 3.5 mph - N/A   Mostly Cloudy
8:53 AM 41.0°F 37.9°F 89% 30.35 in 10.0 miles SSW 3.5 mph - N/A   Mostly Cloudy
9:53 AM 43.0°F 37.0°F 80% 30.37 in 10.0 miles South 4.6 mph - N/A   Mostly Cloudy
10:53 AM 43.0°F 36.0°F 76% 30.37 in 10.0 miles South 4.6 mph - N/A   Overcast
11:53 AM 44.1°F 36.0°F 73% 30.36 in 10.0 miles SSW 6.9 mph - N/A   Overcast
12:53 PM 45.0°F 37.0°F 74% 30.35 in 10.0 miles South 6.9 mph - N/A   Overcast
1:00 PM 44.6°F 37.4°F 76% 30.34 in 10.0 miles SSW 5.8 mph - N/A   Overcast
1:53 PM 45.0°F 37.9°F 76% 30.34 in 10.0 miles South 8.1 mph - N/A   Overcast
2:53 PM 44.1°F 39.0°F 82% 30.34 in 10.0 miles South 5.8 mph - N/A   Overcast
3:53 PM 45.0°F 39.0°F 80% 30.34 in 10.0 miles South 4.6 mph - N/A   Overcast
4:53 PM 44.1°F 39.9°F 85% 30.34 in 10.0 miles South 4.6 mph - N/A   Overcast
5:53 PM 44.1°F 41.0°F 89% 30.35 in 3.0 miles South 4.6 mph - N/A   Overcast
6:53 PM 44.1°F 42.1°F 93% 30.35 in 5.0 miles Calm Calm - N/A   Overcast
7:53 PM 44.1°F 42.1°F 93% 30.35 in 4.0 miles SE 3.5 mph - 0.01 in   Overcast
8:44 PM 44.6°F 42.8°F 93% 30.34 in 4.0 miles SSE 3.5 mph - N/A   Overcast
8:53 PM 44.1°F 42.1°F 93% 30.34 in 2.5 miles SE 3.5 mph - N/A   Overcast
9:02 PM 44.6°F 42.8°F 93% 30.33 in 3.0 miles SSE 3.5 mph - N/A   Overcast
9:53 PM 44.1°F 42.1°F 93% 30.34 in 4.0 miles South 5.8 mph - N/A   Overcast
10:53 PM 44.1°F 42.1°F 93% 30.35 in 6.0 miles SSW 4.6 mph - N/A   Overcast
11:53 PM 45.0°F 43.0°F 93% 30.36 in 9.0 miles South 3.5 mph - N/A   Overcast
Moon Phase
Feb. 11 Feb. 17 Feb. 25 Mar. 04 Mar. 11
Sunrise:07:21 AM (PST) Moon Rise:07:38 AM (PST)2/11
Sunset:05:28 PM (PST) Moon Set:07:43 PM (PST)2/11

Copyright © 2014 The Weather Underground, Inc.